sat.trackr.live / text

‹ back to catalog

STARLINK-31611

NORAD 59325 · 2024-057F

PAYLOAD ACTIVE UNKNOWN

§ Identity

Operator
Country
US
Launch date
2024-03-25
Launch site
AFETR
Launch vehicle
Mass (kg)
RCS (m²)

Purposes: comms

External: N2YO · Heavens-Above · Gunter

§ Orbital elements

Epoch: 2026-09-19T02:21:21.049056Z

Period
94.27 min
Inclination
43.0020°
Eccentricity
0.0001109
Mean motion
15.27578468 rev/d
Perigee alt
482.3 km
Apogee alt
483.8 km
Semi-major
6,861.2 km
B*
-2.5521e-5
RAAN
175.2184°
Arg perigee
277.7473°
Mean anomaly
82.3252°
Rev number
13,941

§ Raw data

STARLINK-316111 59325U 24057F   26262.09816029 -.00000964  00000+0 -25521-4 0  99942 59325  43.0020 175.2184 0001109 277.7473  82.3252 15.27578468139414

JSON: /api/v1/satellites/59325 · /tle

For live sub-satellite position, see the globe view (requires WebGL).

§ Visibility from observer

Set your observer location to see the next 7 days of passes ≥ 10°. The values pass through the URL so the page stays shareable.

No JS? Fill the form by hand. The geolocation button needs JavaScript.